Wind_Speed
23 25 29 31 31 26 6 2 3 10 6 4 1 2 5 4 5 2 5 2 4 4 3 4 3 2 2 6 2 4 3 4 5 2 4 4 4 5 6 4 4 2 4 5
22 25 29 31 30 22 6 2 2 3 4 3 2 4 5 3 3 3 2 4 2 4 3 3 2 1 3 5 2 3 4 2 4 2 2 4 4 6 7 3 3 5 5 5
21 24 28 32 31 19 5 2 2 4 4 2 2 2 4 5 3 5 4 4 5 5 5 5 3 1 2 4 1 1 3 3 5 6 4 5 6 8 9 5 3 2 5 4
18 22 26 30 30 17 4 3 1 2 3 3 3 2 2 3 5 2 4 2 4 2 3 2 2 1 2 3 3 2 3 3 3 2 5 4 5 7 10 8 6 5 3 7
16 20 23 26 28 18 8 2 3 3 3 4 3 4 4 3 2 2 4 3 7 2 1 2 1 4 1 2 3 3 3 2 2 4 1 1 2 6 8 6 5 3 4 6
14 18 20 22 24 18 6 4 4 2 5 3 0 4 4 6 1 6 6 4 3 4 3 4 5 4 5 1 3 1 2 4 3 3 1 1 5 10 9 5 5 7 6 7
12 14 15 16 18 15 5 4 3 3 4 4 4 6 6 8 4 3 8 7 3 2 4 4 3 3 4 3 2 3 4 4 2 2 2 2 5 1 7 9 6 8 3 4
9 10 12 13 12 11 7 4 2 1 4 3 7 10 5 10 8 5 7 4 4 1 3 0 2 2 2 2 2 4 3 3 2 3 3 5 3 3 4 6 7 8 8 5
10 10 10 12 10 7 6 2 4 1 2 3 3 5 5 3 5 5 4 3 1 1 1 1 3 3 3 4 4 4 5 4 3 2 2 4 2 1 1 4 4 4 8 7
13 12 12 12 9 5 3 2 2 1 2 4 2 2 3 6 4 6 4 5 3 2 1 2 3 3 2 3 5 4 2 1 4 2 1 6 4 2 3 1 4 1 6 6
17 17 15 14 11 6 5 4 7 3 3 7 4 2 2 3 3 3 6 6 2 1 2 2 3 2 3 2 3 5 5 5 3 3 3 5 4 2 3 3 1 2 3 4
18 19 18 18 15 6 5 3 4 8 5 7 21 25 29 24 22 2 4 5 8 2 1 2 1 1 2 2 2 1 2 5 4 6 5 4 5 3 2 3 3 2 3 2
17 16 15 15 20 11 9 8 8 4 3 6 3 5 10 7 14 24 4 3 4 4 3 1 1 2 3 2 4 0 2 2 2 1 2 4 4 1 2 1 2 3 3 3
13 14 13 11 10 12 11 7 5 3 4 3 5 5 10 6 5 11 24 15 7 7 3 2 1 2 2 2 2 2 4 3 3 3 5 1 2 3 4 4 5 5 3 2
10 9 8 7 8 10 6 6 12 12 5 3 6 20 8 7 6 18 20 15 6 1 3 2 2 2 1 1 1 3 4 5 4 4 4 3 3 4 5 5 4 4 3 2
7 8 9 6 13 10 2 2 3 5 10 3 4 6 5 14 13 10 11 11 3 3 3 3 3 3 1 2 2 5 4 3 6 4 3 3 5 4 3 5 4 3 2 1
7 2 6 11 8 5 3 2 6 6 1 1 3 4 4 9 5 2 2 7 2 3 3 3 2 3 3 2 3 5 5 6 4 3 6 3 3 4 4 5 3 3 2 2
7 11 13 7 5 3 6 8 10 4 3 0 2 4 4 2 3 1 3 3 3 5 3 2 3 1 3 4 8 10 4 4 3 3 4 1 6 6 5 3 2 2 3 3
11 11 8 5 1 2 4 3 3 7 2 1 1 2 4 5 2 2 2 2 3 2 3 3 3 3 5 7 8 5 4 5 6 6 6 6 5 4 3 3 4 2 2 3
13 6 4 2 2 3 2 1 1 1 1 1 2 1 3 3 2 2 1 3 2 3 4 2 3 3 5 3 3 4 5 5 5 5 4 4 3 3 2 2 1 1 2 2
2 3 2 1 2 3 1 0 1 2 0 2 3 4 3 2 3 3 2 1 2 2 2 4 3 3 2 3 5 4 5 6 6 6 6 5 4 2 2 2 3 4 5 4
6 10 5 1 2 2 2 1 3 3 3 2 2 2 3 3 3 3 2 2 2 3 3 2 2 1 1 1 2 3 4 6 7 7 6 6 6 5 3 3 4 6 8 9
7 5 2 2 2 2 3 3 3 0 1 1 3 5 2 2 2 3 2 3 2 0 2 2 2 1 2 2 3 4 5 8 7 6 8 9 8 8 7 5 7 7 7 8
3 4 0 3 4 4 4 3 2 0 1 4 5 3 2 2 2 2 3 1 1 1 1 3 2 2 3 3 2 3 3 5 6 6 7 7 6 5 5 4 5 7 7 9
3 3 4 5 4 2 1 1 2 1 1 2 4 3 3 2 3 1 3 2 2 2 1 2 4 3 3 3 2 3 3 3 3 4 4 4 4 4 3 4 4 7 7 9
2 3 3 2 2 3 2 1 2 2 1 1 2 3 3 2 2 2 3 2 2 3 2 3 3 0 2 3 3 3 3 4 3 1 2 2 3 5 5 4 7 8 7 9
3 3 1 2 2 3 3 2 0 1 1 1 1 3 2 3 2 3 1 1 2 3 3 2 3 2 2 3 4 5 5 4 5 2 2 2 4 4 4 5 9 9 8 8
Wind_Direction
357 354 352 355 356 357 27 52 44 339 336 50 30 339 304 283 283 174 258 251 254 314 350 54 89 122 236 332 305 126 163 88 137 164 193 192 178 207 175 145 204 237 144 276
359 359 356 359 358 1 317 108 214 358 311 84 349 296 297 245 295 298 284 254 275 285 335 97 109 208 272 16 72 142 173 138 109 110 13 172 206 206 201 137 75 214 158 255
2 4 4 5 2 7 354 53 24 327 24 334 198 298 277 319 306 280 313 269 355 339 10 11 124 57 310 344 116 211 139 140 165 186 191 139 193 182 200 143 136 208 221 264
2 6 9 8 7 9 358 28 37 157 280 288 294 246 281 335 334 290 345 241 49 318 297 353 32 147 329 325 336 53 111 141 158 113 125 128 174 182 174 188 214 166 258 210
1 7 11 10 13 12 67 48 20 339 281 296 253 209 216 210 288 260 297 344 317 338 214 247 246 339 137 250 338 38 15 135 89 347 354 98 275 228 194 211 210 223 245 268
360 5 9 14 17 24 60 9 348 300 262 260 266 266 214 205 235 243 236 276 314 283 218 223 244 222 278 270 180 127 92 121 79 272 237 21 303 223 194 194 209 181 202 231
352 360 5 10 25 31 44 18 338 1 301 333 301 338 313 282 263 265 279 287 220 248 335 294 238 198 209 137 82 131 133 119 129 159 77 248 252 60 187 200 205 206 245 257
332 342 354 3 12 22 39 29 69 36 282 254 310 343 322 313 300 266 254 222 223 31 330 8 216 218 215 219 147 91 122 129 131 159 203 289 277 228 152 168 256 199 202 231
305 312 328 343 348 359 19 26 19 46 348 256 309 297 290 296 309 302 282 4 311 86 68 34 218 218 205 186 176 131 90 79 128 147 169 232 256 239 178 130 287 180 185 190
299 300 303 310 315 322 334 299 250 199 249 270 12 331 337 317 323 303 295 351 316 66 97 186 212 247 167 173 177 175 126 167 170 189 234 287 253 181 157 153 244 30 169 163
287 287 281 285 286 290 271 269 253 205 235 281 253 241 170 326 289 265 342 321 296 29 139 177 243 205 250 127 166 175 168 159 187 173 223 276 166 89 187 223 75 117 108 135
283 290 285 274 270 245 243 266 241 258 232 267 285 280 271 254 251 259 290 302 326 307 210 193 270 298 343 185 221 81 197 181 185 170 212 238 202 235 247 142 134 126 112 96
283 288 299 290 246 212 220 245 277 294 272 277 289 239 285 257 244 224 234 277 323 343 351 294 312 267 122 209 248 258 297 169 188 73 273 233 204 135 97 101 112 92 93 120
284 291 300 297 252 213 209 232 256 233 282 279 274 298 287 265 213 206 216 250 288 321 323 293 202 242 131 240 260 187 207 128 187 261 283 306 230 232 144 102 102 100 75 75
297 299 314 316 186 181 218 263 270 253 178 271 293 304 280 330 278 246 227 212 239 346 318 284 235 235 181 297 349 254 191 192 164 226 223 185 242 156 137 127 126 106 96 36
301 295 300 214 182 170 186 241 94 122 195 310 304 321 305 319 319 231 192 190 175 184 195 232 257 282 145 188 234 260 233 227 194 208 178 180 139 120 101 129 136 107 79 22
320 344 134 160 155 181 193 206 162 157 220 201 279 305 282 326 294 46 101 156 169 172 216 238 271 301 47 260 224 265 258 242 229 178 117 83 175 184 135 124 107 79 39 355
110 128 139 121 126 241 276 260 240 229 118 43 329 284 318 0 312 314 179 161 202 195 247 232 201 254 177 240 244 254 298 237 165 153 28 117 119 116 118 96 83 67 30 355
137 132 124 103 91 267 278 265 219 172 101 341 2 288 295 346 267 285 179 180 175 236 216 233 189 195 210 225 232 261 217 194 171 115 99 90 103 114 102 98 62 60 334 343
140 112 72 29 248 196 156 1 135 77 109 132 217 276 274 334 292 282 228 202 232 189 229 163 206 270 252 20 17 74 65 55 119 119 145 131 115 113 93 69 28 326 288 297
119 80 80 350 231 243 266 226 180 179 191 209 233 214 254 216 249 282 246 270 220 237 191 206 245 251 17 34 63 47 71 74 66 78 70 59 80 92 23 13 13 341 321 319
123 118 94 32 257 247 253 244 176 206 234 187 215 256 221 249 228 253 245 251 187 248 140 223 264 284 58 85 70 61 76 83 68 63 76 61 57 36 21 8 352 338 322 317
105 73 85 206 212 253 226 240 253 154 322 350 320 323 287 275 234 247 253 246 241 331 186 230 242 74 120 129 119 78 64 84 82 70 70 63 56 44 35 18 3 342 333 335
92 112 267 219 239 230 199 196 182 143 264 319 311 276 277 292 255 275 270 298 295 346 259 236 359 329 153 144 109 104 98 88 85 74 64 58 40 30 29 13 354 347 343 336
113 134 225 218 233 275 302 54 51 302 241 311 297 277 244 271 284 280 291 245 262 237 318 43 333 334 126 140 110 121 116 109 90 60 27 25 12 357 325 328 336 348 348 351
119 195 233 240 43 309 329 234 239 221 262 219 237 268 277 266 298 292 251 321 13 338 339 322 311 335 153 149 146 140 129 108 89 290 294 317 337 334 328 358 4 359 355 353
157 258 279 164 202 197 219 204 88 270 50 294 320 261 264 309 267 269 288 10 309 310 320 312 290 278 213 164 154 166 172 184 217 239 310 330 342 346 356 354 351 354 357 356
Height
816 811 807 800 793 787 782 782 793 779 779 786 792 791 774 770 765 767 765 767 763 747 743 747 750 754 748 744 741 745 748 761 773 771 771 769 776 775 780 808 791 813 812 776
816 812 807 800 794 790 787 786 786 779 780 795 783 776 772 766 762 760 756 753 749 745 744 747 746 747 742 742 743 745 748 767 774 778 782 777 777 771 768 780 798 806 801 770
818 812 806 800 794 790 790 793 797 787 783 784 779 775 772 764 758 761 757 752 747 749 746 745 747 746 742 742 742 743 745 761 770 772 756 770 780 771 772 783 810 785 786 758
818 813 807 802 796 791 792 796 799 798 799 787 781 773 768 764 763 758 757 750 755 758 751 748 748 745 744 741 740 741 746 762 759 752 754 758 763 765 773 782 770 777 757 758
819 814 809 806 800 794 796 806 808 800 798 789 784 772 769 765 762 763 759 758 756 753 754 754 752 751 746 744 741 742 752 765 762 777 751 753 756 760 765 765 759 759 761 757
819 815 812 808 804 800 803 805 804 802 791 784 781 776 763 761 760 757 756 756 757 754 750 753 752 751 750 743 744 749 752 764 776 782 757 759 771 756 759 758 755 752 760 748
819 816 813 811 808 807 808 809 810 808 807 799 786 777 776 767 760 760 752 753 754 749 748 747 749 748 745 744 745 749 756 762 771 780 766 773 744 738 742 747 748 750 745 743
818 817 815 812 810 809 808 808 809 811 813 804 792 787 780 776 765 760 750 748 749 747 748 746 746 747 746 745 745 749 751 760 766 773 776 757 740 739 745 747 746 743 745 743
815 815 814 812 810 809 808 809 810 810 814 802 796 791 783 781 775 764 751 747 747 747 752 753 756 752 741 746 746 748 754 758 767 780 776 758 738 735 734 737 746 735 739 742
812 812 811 809 808 807 807 808 808 809 812 796 794 793 792 784 778 773 760 756 751 748 755 756 760 749 739 747 748 751 759 754 766 768 779 756 740 735 734 743 748 733 737 740
807 808 806 804 804 805 806 805 804 806 808 796 790 787 787 787 784 779 769 761 756 757 755 762 755 755 744 747 744 750 752 761 761 763 758 770 736 736 739 737 733 733 735 737
803 801 800 799 800 802 803 804 805 805 805 794 788 787 785 784 782 785 778 770 768 753 753 759 757 750 751 751 745 743 744 746 750 751 752 737 735 732 732 732 734 735 736 738
797 796 796 796 795 793 799 800 801 803 799 788 782 775 771 773 773 777 783 772 765 757 759 753 752 754 754 755 752 738 738 740 740 740 734 734 733 732 732 733 735 737 738 740
793 792 791 791 791 793 794 796 798 799 801 792 777 771 769 767 768 771 773 772 769 770 763 753 751 754 748 751 746 747 743 740 742 742 736 732 732 733 735 737 738 739 740 741
788 787 786 786 787 791 794 792 792 794 798 790 777 770 763 762 763 765 767 770 773 773 770 757 750 751 749 752 750 746 740 738 742 741 733 733 734 734 736 738 740 741 742 743
784 783 783 783 784 786 790 792 792 788 789 791 785 770 761 758 758 759 761 764 770 772 770 762 752 744 746 754 752 736 733 731 729 731 730 731 733 735 736 739 740 741 742 743
780 778 779 782 785 786 789 790 786 786 787 787 777 775 763 760 757 758 760 763 765 767 767 760 751 747 746 742 744 732 728 728 728 728 730 735 734 736 737 739 741 741 742 742
779 779 781 781 786 788 788 786 786 786 789 790 792 781 771 762 758 758 758 759 761 759 757 751 750 749 747 745 738 729 728 727 728 731 733 731 734 737 739 740 741 742 744 744
780 782 782 785 789 791 790 786 786 787 791 790 789 797 789 766 760 757 757 755 755 755 749 748 743 739 737 733 731 727 726 728 729 734 736 737 738 740 741 742 743 744 745 745
781 783 785 790 791 791 790 790 788 786 789 788 788 786 783 776 764 756 755 753 746 747 744 740 742 737 728 731 732 733 733 733 733 734 738 740 741 743 743 744 744 745 745 745
782 785 789 791 793 793 789 785 786 785 784 784 782 781 779 772 767 758 753 748 745 740 737 738 733 727 734 739 739 738 736 737 737 737 739 740 741 743 744 744 744 745 745 744
781 784 788 793 795 792 789 785 779 783 786 774 773 768 768 767 765 757 752 744 746 731 734 733 732 733 740 741 740 740 740 740 741 742 743 744 745 746 746 746 746 746 745 744
781 784 790 794 792 797 784 803 782 779 774 775 776 769 763 762 761 755 748 740 738 739 732 733 734 739 742 743 743 743 744 744 745 746 746 747 747 747 747 747 747 746 745 743
781 795 802 794 797 785 791 784 780 778 778 778 776 770 765 758 754 749 739 740 740 743 740 737 735 739 740 743 744 745 746 746 747 748 749 749 749 749 749 749 748 746 744 742
787 786 795 795 787 784 782 780 779 778 776 777 775 771 766 758 753 748 745 738 739 735 731 738 744 743 743 745 746 747 748 749 749 750 750 750 749 749 749 749 748 745 743 742
781 781 783 782 792 793 788 783 782 776 772 772 775 768 761 754 754 752 752 747 737 741 745 747 746 744 744 745 746 748 749 750 750 751 750 750 750 749 749 748 746 744 743 741
784 790 781 785 789 786 781 775 773 775 775 771 774 769 758 764 755 757 754 744 749 750 750 750 749 746 746 746 746 748 749 750 750 750 750 750 749 748 748 747 746 744 742 741